This demonstration page uses our WeatherBlox Daily Observations layout. Learn more.

Left ArrowRight Arrow

Hourly Observations for February 27, 2016

Temp ( °F °C ) Dew Point ( °F °C ) Humidity (%) Winds ( mph kmh ) Pressure ( in mb ) Visibility ( mi km ) Precip ( " mm )
12:59 am 00:59 Mostly Clear 35 1.7 16 -8.9 46 46 NNW 14 22 30.22 1023 10 16 0.00 0.00
1:59 am 01:59 Mostly Clear 34 1.1 15 -9.4 46 46 N 10 17 30.22 1023 10 16 0.00 0.00
2:59 am 02:59 Mostly Clear 34 1.1 16 -8.9 48 48 N 12 19 30.22 1023 10 16 0.00 0.00
3:59 am 03:59 Mostly Clear 33 0.6 17 -8.3 52 52 NNW 10 17 30.22 1023 10 16 0.00 0.00
4:59 am 04:59 Clear 33 0.6 16 -8.9 49 49 N 9 15 30.22 1024 10 16 0.00 0.00
5:59 am 05:59 Clear 34 1.1 16 -8.9 48 48 N 12 19 30.23 1024 10 16 0.00 0.00
6:59 am 06:59 Mostly Sunny 34 1.1 16 -8.9 48 48 N 12 19 30.24 1024 10 16 0.00 0.00
7:59 am 07:59 Mostly Sunny 36 2.2 16 -8.9 44 44 NNE 9 15 30.25 1025 10 16 0.00 0.00
8:59 am 08:59 Mostly Sunny 38 3.3 17 -8.3 43 43 N 8 13 30.26 1025 10 16 0.00 0.00
9:59 am 09:59 Mostly Sunny 39 3.9 17 -8.3 41 41 N 5 7 30.26 1025 10 16 0.00 0.00
10:59 am 10:59 Mostly Sunny 40 4.4 17 -8.3 40 40 NNW 8 13 30.25 1024 10 16 0.00 0.00
11:59 am 11:59 Mostly Sunny 41 5 17 -8.3 38 38 NW 6 9 30.22 1024 10 16 0.00 0.00
12:59 pm 12:59 Mostly Sunny 42 5.6 16 -8.9 35 35 WSW 10 17 30.18 1022 10 16 0.00 0.00
1:59 pm 13:59 Partly Cloudy 44 6.7 17 -8.3 34 34 WSW 7 11 30.15 1021 10 16 0.00 0.00
2:59 pm 14:59 Partly Cloudy 46 7.8 18 -7.8 32 32 WNW 8 13 30.15 1021 10 16 0.00 0.00
3:59 pm 15:59 Partly Cloudy 45 7.2 17 -8.3 33 33 W 7 11 30.14 1021 10 16 0.00 0.00
4:59 pm 16:59 Mostly Sunny 46 7.8 19 -7.2 34 34 W 7 11 30.13 1020 10 16 0.00 0.00
5:59 pm 17:59 Mostly Clear 44 6.7 20 -6.7 38 38 W 5 7 30.15 1021 10 16 0.00 0.00
6:59 pm 18:59 Clear 40 4.4 23 -5 51 51 SSW 3 6 30.15 1021 10 16 0.00 0.00
7:59 pm 19:59 Clear 36 2.2 24 -4.4 62 62 S 5 7 30.16 1021 10 16 0.00 0.00
8:59 pm 20:59 Clear 38 3.3 24 -4.4 57 57 S 5 7 30.16 1021 10 16 0.00 0.00
9:59 pm 21:59 Clear 37 2.8 24 -4.4 59 59 S 5 7 30.17 1022 10 16 0.00 0.00
10:59 pm 22:59 Clear 40 4.4 24 -4.4 53 53 SSW 7 11 30.16 1021 10 16 0.00 0.00
11:59 pm 23:59 Clear 41 5 24 -4.4 51 51 SSW 9 15 30.14 1021 10 16 0.00 0.00

Powered by AerisWeather